軌道要素
Epoch 2019 July 16.0 TT = JDT 2458680.5
T 2019 Aug. 1.89935 TT Rudenko
q 2.3734556 (2000.0) P Q
z -0.0001588 Peri. 16.55539 -0.17982804 -0.63660956
+/-0.0000388 Node 270.51703 -0.96597503 -0.02977987
e 1.0003769 Incl. 131.41332 -0.18588736 +0.77061107
From 218 observations 2019 May 14-Aug. 26, mean residual 0".6.
|